Regional Weather Roundup
Issued by NWS

Home | Current Version | Previous Version | Graphics & Text | Print | Product List | Glossary On
Versions: 1 2 3 4 5 6 7 8 9 10 11 12 13 14 15 16 17 18 19 20 21 22 23 24 25 26 27 28 29 30 31 32 33 34 35 36 37 38 39 40 41 42 43 44 45 46 47 48 49 50
000
ASUS43 KMPX 051610
RWRMN
WEATHER ROUNDUP FOR MINNESOTA
NATIONAL WEATHER SERVICE TWIN CITIES/CHANHASSEN MN
1000 AM CST THU MAR 05 2015


NOTE: "FAIR" INDICATES FEW OR NO CLOUDS BELOW 12,000 FEET WITH NO
SIGNIFICANT WEATHER AND/OR OBSTRUCTIONS TO VISIBILITY. N/A MEANS
CURRENT SKY AND/OR WEATHER CONDITIONS ARE NOT AVAILABLE.

MNZ060>063-068>070-051700-
   Twin Cities Metro

CITY           SKY/WX    TMP DP  RH WIND       PRES   REMARKS
TWIN CITIES    SUNNY      2  -8  63 SW5       30.52S WCI  -8
ST PAUL        SUNNY      4  -7  60 SW7       30.54S WCI  -8
CRYSTAL        SUNNY      3  -7  63 W5        30.50F WCI  -6
BLAINE         SUNNY      3  -6  66 SW6       30.50S WCI  -8
LAKEVILLE      SUNNY      1  -8  66 W1        30.51S
EDEN PRAIRIE   SUNNY      3  -7  63 SW7       30.51S WCI  -9
SOUTH ST PAUL  SUNNY      5  -7  57 SW3       30.52F
LAKE ELMO      FAIR       3  -8  60 W5        30.51F WCI  -6
$$
MNZ001>005-007-008-013>017-022>024-027-028-051700-
   Northwest Minnesota

CITY           SKY/WX    TMP DP  RH WIND       PRES   REMARKS
BEMIDJI        SUNNY      0  -8  67 SW12      30.32S WCI -17
HALLOCK        SUNNY     -4 -11  71 S16       30.27F WCI -25
ROSEAU         SUNNY     -2  -9  71 S9        30.28F WCI -18
WARROAD        SUNNY     -2 -11  65 SW8       30.28S WCI -17
THIEF RVR FALL SUNNY      0 -18  42 S14       30.31S WCI -19
CROOKSTON      SUNNY      3  -6  66 S14       30.34F WCI -15
FOSSTON        SUNNY      0  -8  71 S13       30.33F WCI -18
DETROIT LAKES  SUNNY      1  -6  71 SW10      30.36F WCI -14
MOORHEAD       SUNNY      7  -6  56 SW14      30.38F WCI -10
PARK RAPIDS    SUNNY      1  -8  66 W10       30.34F WCI -15
MAHNOMEN       FAIR       0  -7  73 S14       30.35F WCI -19
$$
MNZ006-009>011-018-025>026-051700-
   North Central Minnesota

CITY           SKY/WX    TMP DP  RH WIND       PRES   REMARKS
BAUDETTE       SUNNY     -2 -11  65 SW9       30.28S WCI -18
FLAG ISLAND    SUNNY     -9 -15  77 S12       30.26F WCI -29
INTL FALLS     SUNNY     -2 -12  62 SW8       30.30F WCI -17
WASKISH        SUNNY      0  -9  65 SW12      30.31F WCI -18
BIG FORK       SUNNY      1  -9  60 S6        30.31F WCI -10
LONGVILLE      SUNNY      0 -11  60 SW6       30.36S WCI -12
GRAND RAPIDS   SUNNY      0  -9  65 SW3       30.33F
CRANE LAKE     SUNNY     -2 -15  55 W8        30.34F WCI -17
ORR            SUNNY     -2 -13  60 SW6       30.29S WCI -14
COOK           SUNNY     -2 -11  65 SW7       30.32F WCI -16
WALKER         FAIR      -1 -12  60 SW12G17   30.34S WCI -18
$$
MNZ012-019>021-037-051700-
   Northeast Minnesota

CITY           SKY/WX    TMP DP  RH WIND       PRES   REMARKS
DULUTH         SUNNY     -1 -11  62 W10       30.36R WCI -17
ELY            SUNNY     -4 -11  71 SW5       30.31F WCI -15
HIBBING        SUNNY      1 -11  57 SW10      30.34F WCI -15
EVELETH        SUNNY     -2  -9  71 SW9       30.35S WCI -18
DULUTH HARBOR  SUNNY      0 -11  60 CALM      30.47S
TWO HARBORS    SUNNY      5  -9  51 W5        30.36S WCI  -4
SILVER BAY     SUNNY      7 -11  43 CALM      30.34S
GRAND MARAIS     N/A      8  -5  55 W9        30.38F WCI  -5
G MARAIS ARPRT SUNNY      1 -17  42 W7        30.24R WCI -11
$$
MNZ029>031-032-039>041-046>048-054>057-064-051700-
   West Central Minnesota

CITY           SKY/WX    TMP DP  RH WIND       PRES   REMARKS
FERGUS FALLS   SUNNY      0  -9  65 S9        30.45F WCI -16
WHEATON        SUNNY      0  -9  65 SE9       30.44F WCI -16
MORRIS         SUNNY      1  -9  60 S9        30.42F WCI -14
ALEXANDRIA     SUNNY     -3  -7  82 SW7       30.40S WCI -16
ELBOW LAKE     FAIR      -3  -7  83 S9        30.41S WCI -19
WADENA         SUNNY     -2  -6  84 SW8       30.38S WCI -17
GLENWOOD       SUNNY      0  -6  78 SW9       30.42F WCI -16
APPLETON       SUNNY      3  -8  60 S6        30.46F WCI  -8
BENSON         SUNNY      3  -8  60 SW5       30.45S WCI  -6
ORTONVILLE     SUNNY      1  -9  60 SE6       30.43F WCI -10
MADISON        SUNNY      5  -6  61 S9        30.45F WCI  -9
WILLMAR        FAIR       3  -8  60 SW7       30.47S WCI  -9
$$
MNZ033>034-036-042>043-049>051-058-059-051700-
   Central Minnesota

CITY           SKY/WX    TMP DP  RH WIND       PRES   REMARKS
ST CLOUD       SUNNY      0  -7  72 S6        30.47S WCI -12
SAUK CENTRE    FAIR       0  -5  81 SW9       30.44S WCI -16
PAYNESVILLE    SUNNY     -1  -6  80 S7        30.46S WCI -15
AITKIN         SUNNY      3  -9  55 SW5       30.39S WCI  -6
PINE RIVER     SUNNY      0  -9  65 SW9       30.40F WCI -16
BRAINERD       SUNNY     -3 -10  72 SW7       30.41F WCI -16
STAPLES        SUNNY      0  -8  71 SW7       30.39S WCI -13
LONG PRAIRIE   FAIR      -4  -8  84 S6        30.42S WCI -16
LITTLE FALLS   SUNNY      0  -9  65 S3        30.45S
LITCHFIELD     SUNNY      3  -6  66 CALM      30.47F
BUFFALO        SUNNY      0  -7  71 S5        30.51S WCI -10
MAPLE LAKE     SUNNY      3  -5  68 SW3       30.49S
$$
MNZ037-044-045-052-053-051700-
   East Central Minnesota

CITY           SKY/WX    TMP DP  RH WIND       PRES   REMARKS
PRINCETON      SUNNY      3  -8  60 CALM      30.47F
MORA           SUNNY      1  -9  60 SW5       30.48S WCI  -8
CAMBRIDGE      SUNNY      1  -9  60 SW3       30.47S
RUSH CITY      SUNNY      1  -9  63 CALM      30.49S
MOOSE LAKE     SUNNY      3  -9  55 CALM      30.41F
HINCKLEY       FAIR       1  -8  66 CALM      30.46F
CLOQUET        SUNNY      0 -11  60 W7        30.38S WCI -13
MCGREGOR       SUNNY      1  -6  71 SW7       30.41S WCI -11
$$
MNZ071>073-080-081-089-090-097-098-051700-
   Southwest Minnesota

CITY           SKY/WX    TMP DP  RH WIND       PRES   REMARKS
MONTEVIDEO     SUNNY      7   0  72 SW5       30.48F WCI  -2
GRANITE FALLS  SUNNY      5  -5  62 S6        30.49F WCI  -6
CANBY          SUNNY      7  -7  54 SW7       30.45F WCI  -5
MARSHALL       SUNNY      5  -6  61 S3        30.47F
REDWOOD FALLS  SUNNY      2  -7  66 S9        30.50S WCI -13
OLIVIA         SUNNY      3  -6  66 SW8       30.48F WCI -10
PIPESTONE      SUNNY      1  -8  66 SW10      30.41S WCI -14
WINDOM         SUNNY      3  -8  60 SW10      30.46S WCI -12
WORTHINGTON    SUNNY      3  -8  60 SW10      30.47S WCI -12
JACKSON        SUNNY      5  -8  56 SW9       30.47S WCI  -9
TRACY          SUNNY      5  -6  61 SW13      30.46S WCI -12
SLAYTON        SUNNY      3 -10  54 CALM      30.43F
$$
MNZ065>067-074>077-082>085-091>093-051700-
   South Central Minnesota

CITY           SKY/WX    TMP DP  RH WIND       PRES   REMARKS
MANKATO        SUNNY      1  -8  66 W5        30.51S WCI  -8
NEW ULM        SUNNY      1  -8  66 SW3       30.50F
ST JAMES       SUNNY      7  -4  61 S7        30.51F WCI  -5
FAIRMONT       SUNNY      5  -6  61 W5        30.49F WCI  -4
GLENCOE        SUNNY      2  -4  75 SW5       30.50S WCI  -7
FARIBAULT      SUNNY      3  -6  66 CALM      30.51S
OWATONNA       SUNNY      1  -8  66 SW3       30.50S
WASECA         SUNNY      1  -4  78 SW5       30.52S WCI  -8
ALBERT LEA     SUNNY      1  -8  66 W5        30.49F WCI  -8
$$
MNZ078>079-086>088-094>096-051700-
   Southeast Minnesota

CITY           SKY/WX    TMP DP  RH WIND       PRES   REMARKS
ROCHESTER      SUNNY     -2  -8  76 W6        30.49R WCI -14
RED WING       SUNNY      1  -9  60 W6        30.54R WCI -10
STANTON        SUNNY      3  -8  61 W3        30.51F
DODGE CENTER   SUNNY      0  -8  71 SW5       30.47S WCI -10
WINONA         SUNNY      5  -8  56 NW5       30.56S WCI  -4
AUSTIN         SUNNY      1  -8  66 W5        30.50S WCI  -8
PRESTON        SUNNY     -2  -9  72 W7        30.50S WCI -15
$$
ABBREVIATIONS USED IN REMARKS
   TC - TEMPERATURES IN CELSIUS
  WCI - WIND CHILL INDEX
   HX - HEAT INDEX
  VSB - VISIBILITY
$$


USA.gov is the U.S. government's official web portal to all federal, state and local government web resources and services.